AirNav   Air Wisconsin pilot careers
 
 1451 users online  

2A8 Addison Municipal Airport
Addison, Alabama, USA

GOING TO ADDISON?


FAA INFORMATION EFFECTIVE 03 JANUARY 2019

Location

FAA Identifier: 2A8
Lat/Long: 34-13-01.7100N / 087-09-29.3700W
34-13.028500N / 087-09.489500W
34.2171417 / -87.1581583
(estimated)
Elevation: 786 ft. / 240 m (estimated)
Variation: 00E (1980)
From city: 1 mile NE of ADDISON, AL
Time zone: UTC -6 (UTC -5 during Daylight Saving Time)
Zip code: 35540

Airport Operations

Airport use: Open to the public
Activation date: 12/1986
Control tower: no
ARTCC: MEMPHIS CENTER
FSS: ANNISTON FLIGHT SERVICE STATION
NOTAMs facility: ANB (NOTAM-D service available)
Attendance: UNATNDD
Wind indicator: yes
Segmented circle: no

Airport Communications

CTAF: 122.9
WX AWOS-3PT at CMD (15 nm E): 124.175 (256-775-7476)

Nearby radio navigation aids

VOR radial/distance  VOR name  Freq  Var
DCUr204/28.0DECATUR VOR/DME112.8001W
MSLr150/33.7MUSCLE SHOALS VORTAC116.5001E
VUZr337/35.2VULCAN VORTAC114.4002E

 
NDB name  Hdg/Dist  Freq  Var  ID
REDSTONE223/37.128704WHUA .... ..- .-

Airport Services

Parking: tiedowns

Runway Information

Runway 5/23

Dimensions: 2644 x 112 ft. / 806 x 34 m
Surface: turf, in good condition
Runway edge markings: MKD BY WHITE CONES WITH BLACK TIPS.
Gradient: SW
RUNWAY 5  RUNWAY 23
Latitude: 34-12.885000N34-13.172000N
Longitude: 087-09.687000W087-09.292000W
Elevation: 786.0 ft.776.0 ft.
Gradient: 0.4% UP
Traffic pattern: leftleft
Runway heading: 049229
Markings: NSTDNSTD
Obstructions: 32 ft. trees, 585 ft. from runway, 58 ft. left of centerline, 18:1 slope to clear25 ft. trees, 641 ft. from runway, 27 ft. right of centerline, 25:1 slope to clear

Airport Ownership and Management from official FAA records

Ownership: Publicly-owned
Owner: CITY OF ADDISON
PO BOX 98
ADDISON, AL 35540
Phone 205-747-2971
Manager: RONNY JENKINS
P O BOX 177
ADDISON, AL 35540
Phone 256-565-8202

Airport Operational Statistics

Aircraft based on the field: 4
Single engine airplanes: 4
    
Aircraft operations: avg 27/week *
85% transient general aviation
15% local general aviation
* for 12-month period ending 01 February 2019

Instrument Procedures

There are no published instrument procedures at 2A8.

Some nearby airports with instrument procedures:

KCMD - Cullman Regional Airport-Folsom Field (15 nm E)
5M0 - Hartselle-Morgan County Regional Airport (16 nm NE)
KJFX - Walker County Airport-Bevill Field (20 nm S)
1M4 - Posey Field Airport (22 nm W)
9A4 - Courtland Airport (28 nm N)
 
Loc | Ops | Rwys | IFR | FBO | Links
Com | Nav | Svcs | Stats | Notes
Area around 2A8 (Addison Municipal Airport)
 
Road maps at: MapQuest Bing Google
 
Aerial photo
No photo
 
Sectional chart

 
Airport distance calculator
Flying to Addison Municipal Airport? Find the distance to fly.

From to 2A8

Sunrise and sunset
Times for 16-Jan-2019
 Local
(UTC-6)
 Zulu
(UTC)
Morning civil twilight06:2812:28
Sunrise06:5512:55
Sunset17:0223:02
Evening civil twilight17:2923:29

Current date and time
Zulu (UTC)  16-Jan-2019 18:17:12
Local (UTC-6)  16-Jan-2019 12:17:12
 
METAR
KCMD 
15nm E 
161755Z AUTO 00000KT 10SM CLR 09/00 A3030 RMK AO2 T00860000 10088 21053
KJFX 
20nm S 
161755Z AUTO 00000KT 10SM 11/02 A3031 RMK AO2 PWINO
K1M4 
22nm W 
161756Z AUTO 00000KT 10SM CLR 09/01 A3030 RMK AO2 SLP284 T00890011 10089 21056 58011
KDCU 
28nm N 
161753Z AUTO 22004KT 9SM CLR 07/02 A3031 RMK AO2 SLP266 I6000 T00720017 10072 21044 58009
TAF
KHSV 
32nm NE 
161720Z 1618/1718 VRB05KT P6SM SKC FM170000 VRB03KT P6SM SCT250 FM170900 13005KT P6SM BKN050 FM171600 17009KT 4SM -RA BR BKN009 OVC015
KMSL 
39nm NW 
161720Z 1618/1718 20004KT P6SM SKC FM170000 VRB02KT P6SM SCT250 FM170600 16006KT P6SM BKN050 FM171400 18009KT 4SM -RA BR BKN009 OVC015
NOTAMs
Click for the latest NOTAMs
NOTAMs are issued by the DoD/FAA and will open in a separate window not controlled by AirNav.

 

 
 

Would you like to see your business listed on this page?

 If your business provides an interesting product or service to pilots, flight crews, aircraft, or users of the Addison Municipal Airport, you should consider listing it here.  To start the listing process, click on the button below
 
Add a business
 

Other Pages about Addison Municipal Airport

Update a link
 
Copyright © AirNav, LLC. All rights reserved. Privacy Policy  Contact